[[{"header":{"parameterUnit":"m.s-1","parameterCategory":1,"la1":30.2991,"la2":30.254,"lo1":-89.0895,"lo2":-89.0444,"dy":0.0017,"dx":0.0017,"nx":28,"ny":28,"refTime":"2024-02-03T09:00:00:Z","depth":0,"parameterNumber":2,"parameterNumberName":"U-component_of_WINDS"},"data":[0,0,0,0,0,0,0,0,0,0,0,0,0,0,0,0,0,0,0,0,0,0,0,0,0,0,0,0,0,0,0,0,0,0,0,0,0,0,0,0,0,0,0,0,0,0,0,0,0,0,0,0,0,0,0,0,0,0,-0.2459,-0.246,0,-0.2522,-0.2523,-0.2523,-0.2562,-0.2562,-0.2562,-0.2563,-0.2627,-0.2628,-0.2629,0,0,0,0,0,0,0,0,0,0,0,0,0,-0.2374,-0.2375,-0.2459,-0.246,-0.2461,-0.2522,-0.2523,-0.2523,-0.2562,-0.2562,-0.2562,-0.2563,-0.2626,-0.2628,-0.263,0,0,0,0,0,0,0,0,0,0,0,0,0,-0.2421,-0.2375,-0.2459,-0.2487,-0.2491,-0.2522,-0.2523,-0.2524,-0.2562,-0.2562,-0.2562,-0.2563,-0.2625,-0.2628,-0.263,-0.2638,0,0,-0.2637,-0.2638,0,0,0,0,0,0,0,0,-0.2418,-0.2424,-0.2483,-0.2486,-0.2489,-0.2534,-0.2516,-0.2562,-0.2562,-0.2535,-0.2563,-0.2563,-0.2596,-0.26,-0.2611,-0.2641,-0.2643,-0.2637,-0.2638,-0.2639,-0.264,0,0,0,0,0,0,0,-0.2415,-0.2422,-0.2484,-0.2483,-0.2487,-0.2497,-0.2504,-0.2525,-0.2563,-0.2537,-0.254,-0.2547,-0.2598,-0.2609,-0.2613,-0.2644,-0.2637,-0.2639,-0.264,-0.2641,-0.2683,-0.2683,0,0,0,0,0,0,-0.2407,-0.2419,-0.2482,-0.2486,-0.2454,-0.2498,-0.2506,-0.252,-0.2563,-0.2569,-0.2547,-0.2549,-0.2605,-0.2611,-0.2616,-0.2628,-0.2639,-0.2641,-0.2643,-0.2684,-0.2683,-0.2683,0,0,0,0,0,0,-0.2405,-0.2412,-0.248,-0.2453,-0.2462,-0.25,-0.2514,-0.2521,-0.2532,-0.257,-0.2577,-0.2552,-0.2606,-0.2612,-0.2632,-0.263,-0.2642,-0.2645,-0.2684,-0.2684,-0.2683,-0.2651,0,0,0,0,0,0,-0.2402,-0.2411,-0.2415,-0.2453,-0.2464,-0.2495,-0.2514,-0.2522,-0.2536,-0.2539,-0.2576,-0.2583,-0.2606,-0.2628,-0.2634,-0.2634,-0.2646,-0.2684,-0.2684,-0.2683,-0.2653,-0.265,-0.2648,0,0,0,0,0,-0.2399,-0.2403,-0.2415,-0.2422,-0.2469,-0.2495,-0.2501,-0.2528,-0.2536,-0.2539,-0.2564,-0.2581,-0.263,-0.263,-0.2637,-0.2637,-0.2684,-0.2684,-0.2683,-0.2654,-0.2651,-0.2648,0,0,0,0,0,0,-0.2364,-0.2409,-0.2422,-0.2438,-0.2462,-0.2501,-0.2506,-0.2523,-0.2546,-0.2548,-0.258,-0.2589,-0.2605,-0.2623,-0.2623,-0.2647,-0.2659,-0.266,-0.2634,-0.2631,-0.2629,-0.2624,-0.2648,0,0,0,0,0,-0.2358,-0.2375,-0.2414,-0.2424,-0.2436,-0.2469,-0.2481,-0.25,-0.2526,-0.2537,-0.2562,-0.2587,-0.2608,-0.2621,-0.2642,-0.2656,-0.2664,-0.2659,-0.2657,-0.2654,-0.2655,-0.2663,-0.2661,-0.2681,-0.2681,-0.2681,0,0,-0.2346,-0.2373,-0.2382,-0.2418,-0.2439,-0.2456,-0.2477,-0.2495,-0.2508,-0.2539,-0.2559,-0.2579,-0.2609,-0.2625,-0.2634,-0.2641,-0.2651,-0.2654,-0.2652,-0.2653,-0.2662,-0.2661,-0.2659,-0.2681,-0.2681,-0.2681,0,0,-0.2333,-0.2355,-0.2366,-0.2387,-0.2418,-0.244,-0.2442,-0.2479,-0.2493,-0.2514,-0.2538,-0.2554,-0.2589,-0.2609,-0.2624,-0.2619,-0.2636,-0.2625,-0.2611,-0.2619,-0.2618,-0.2616,-0.2614,-0.2613,-0.2625,-0.2625,-0.2625,0,-0.2314,-0.2341,-0.237,-0.2386,-0.2401,-0.2431,-0.2442,-0.2461,-0.2497,-0.2507,-0.2515,-0.256,-0.2582,-0.2603,-0.2602,-0.2613,-0.2617,-0.262,-0.2616,-0.2615,-0.2614,-0.2612,-0.2611,-0.2623,-0.2623,-0.2624,-0.2624,0,-0.2316,-0.2334,-0.234,-0.2374,-0.239,-0.2404,-0.2435,-0.2448,-0.2465,-0.2487,-0.2507,-0.2535,-0.2562,-0.2569,-0.2586,-0.2593,-0.2597,-0.2609,-0.2622,-0.261,-0.2609,-0.2609,-0.2621,-0.2622,-0.2622,-0.2622,0,0,-0.2282,-0.2332,-0.2334,-0.235,-0.2386,-0.2401,-0.2416,-0.2443,-0.2453,-0.2478,-0.2491,-0.252,-0.2532,-0.2549,-0.2569,-0.2576,-0.257,-0.2588,-0.259,-0.2584,-0.2579,-0.2569,-0.2568,-0.2582,-0.2582,-0.2582,-0.2577,0,-0.2274,-0.2302,-0.2329,-0.2348,-0.2365,-0.2394,-0.2407,-0.2431,-0.2451,-0.2469,-0.2492,-0.2512,-0.2526,-0.2536,-0.2545,-0.2569,-0.257,-0.257,-0.2595,-0.2595,-0.2586,-0.2568,-0.2557,-0.255,-0.2577,-0.2577,-0.2577,0,-0.2268,-0.2291,-0.2311,-0.2347,-0.2355,-0.2366,-0.2393,-0.2409,-0.2437,-0.2452,-0.247,-0.2492,-0.2509,-0.252,-0.2545,-0.2544,-0.2556,-0.257,-0.257,-0.2573,-0.2585,-0.257,-0.2549,-0.2548,-0.2576,-0.2576,-0.2576,0,-0.2241,-0.2277,-0.2294,-0.2307,-0.2348,-0.2355,-0.2373,-0.2401,-0.2416,-0.2439,-0.2449,-0.2474,-0.2487,-0.2506,-0.2534,-0.2539,-0.2555,-0.2569,-0.2568,-0.2567,-0.2569,-0.2569,-0.255,-0.2578,-0.2578,-0.2578,-0.2578,0,-0.2229,-0.224,-0.2282,-0.2292,-0.2306,-0.2337,-0.2349,-0.237,-0.2395,-0.2409,-0.2436,-0.2449,-0.2485,-0.2503,-0.2524,-0.2541,-0.2547,-0.2559,-0.2565,-0.2557,-0.2555,-0.2564,-0.2565,-0.2577,-0.2577,-0.2578,-0.2578,0,-0.22,-0.2229,-0.2249,-0.2287,-0.2296,-0.2305,-0.2337,-0.2348,-0.237,-0.2389,-0.2395,-0.2429,-0.2452,-0.2481,-0.2512,-0.2527,-0.2541,-0.255,-0.2532,-0.2535,-0.2532,-0.2531,-0.2518,-0.2518,-0.2546,-0.2545,-0.2545,0,-0.219,-0.22,-0.2238,-0.225,-0.2267,-0.2286,-0.2301,-0.2331,-0.2346,-0.2378,-0.2385,-0.241,-0.2431,-0.2465,-0.2493,-0.2517,-0.2527,-0.252,-0.253,-0.2522,-0.2526,-0.2525,-0.2526,-0.2518,-0.2517,-0.2517,-0.2516,0,-0.217,-0.2184,-0.2204,-0.2229,-0.2246,-0.2267,-0.229,-0.2298,-0.2334,-0.2348,-0.2371,-0.2388,-0.242,-0.2444,-0.2472,-0.249,-0.2509,-0.2513,-0.2514,-0.2506,-0.2494,-0.25,-0.2524,-0.2513,-0.2514,-0.2514,-0.2514,-0.2514,-0.2151,-0.216,-0.2189,-0.221,-0.2231,-0.2251,-0.2263,-0.2287,-0.2307,-0.2335,-0.2352,-0.2374,-0.2403,-0.2442,-0.246,-0.2478,-0.2485,-0.2486,-0.2487,-0.2487,-0.2484,-0.2492,-0.2483,-0.2483,-0.2483,-0.2483,-0.2483,0,-0.2131,-0.2151,-0.2171,-0.2201,-0.2218,-0.2235,-0.2261,-0.2274,-0.2293,-0.2318,-0.2338,-0.2364,-0.2387,-0.2417,-0.2443,-0.2451,-0.2461,-0.2457,-0.2456,-0.246,-0.2476,-0.2472,-0.2449,-0.2449,-0.2449,-0.2449,-0.2449,-0.2449,-0.2123,-0.214,-0.2157,-0.2185,-0.2205,-0.2226,-0.224,-0.2259,-0.2279,-0.2307,-0.2326,-0.2345,-0.2372,-0.24,-0.2422,-0.243,-0.2438,-0.2431,-0.2442,-0.2456,-0.2459,-0.2462,-0.2459,-0.2433,-0.2433,-0.2425,-0.2425,-0.2425]},{"header":{"parameterUnit":"m.s-1","parameterCategory":1,"la1":30.2991,"la2":30.254,"lo1":-89.0895,"lo2":-89.0444,"dy":0.0017,"dx":0.0017,"nx":28,"ny":28,"refTime":"2024-02-03T09:00:00:Z","depth":0,"parameterNumber":3,"parameterNumberName":"V-component_of_WINDS"},"data":[0,0,0,0,0,0,0,0,0,0,0,0,0,0,0,0,0,0,0,0,0,0,0,0,0,0,0,0,0,0,0,0,0,0,0,0,0,0,0,0,0,0,0,0,0,0,0,0,0,0,0,0,0,0,0,0,0,0,0.1851,0.1851,0,0.188,0.188,0.188,0.1869,0.1869,0.1868,0.1867,0.1896,0.1897,0.1898,0,0,0,0,0,0,0,0,0,0,0,0,0,0.1786,0.1787,0.1851,0.1851,0.1852,0.188,0.188,0.188,0.1869,0.1869,0.1868,0.1867,0.1895,0.1897,0.1898,0,0,0,0,0,0,0,0,0,0,0,0,0,0.1814,0.1787,0.1851,0.1849,0.185,0.188,0.188,0.1881,0.187,0.1869,0.1868,0.1867,0.1895,0.1897,0.1899,0.1931,0,0,0.1905,0.1906,0,0,0,0,0,0,0,0,0.1813,0.1817,0.1849,0.185,0.185,0.187,0.1868,0.1898,0.187,0.1862,0.1867,0.1866,0.1888,0.189,0.1898,0.1933,0.1934,0.1905,0.1906,0.1907,0.1908,0,0,0,0,0,0,0,0.1811,0.1815,0.1862,0.185,0.185,0.1847,0.185,0.1873,0.188,0.1863,0.1862,0.1865,0.1888,0.1896,0.1899,0.1934,0.1905,0.1907,0.1908,0.1909,0.1999,0.2,0,0,0,0,0,0,0.1809,0.1814,0.1861,0.1863,0.1828,0.1849,0.1853,0.1864,0.188,0.1881,0.1866,0.1865,0.1893,0.1896,0.1899,0.194,0.1907,0.1909,0.191,0.1998,0.1999,0.2,0,0,0,0,0,0,0.1807,0.1813,0.186,0.1838,0.1844,0.1851,0.1865,0.1866,0.1874,0.1883,0.1884,0.1873,0.1892,0.1897,0.1924,0.194,0.191,0.1912,0.1996,0.1998,0.2,0.2019,0,0,0,0,0,0,0.1806,0.1813,0.1825,0.1839,0.1845,0.1884,0.1866,0.1867,0.1877,0.1876,0.189,0.1891,0.1892,0.1921,0.1926,0.1943,0.1914,0.1995,0.1997,0.1999,0.2017,0.2022,0.2025,0,0,0,0,0,0.1803,0.1829,0.1826,0.1831,0.1861,0.1885,0.1889,0.189,0.1879,0.1891,0.1897,0.189,0.1938,0.1924,0.1929,0.1947,0.1994,0.1996,0.1999,0.2015,0.2021,0.2025,0,0,0,0,0,0,0.1816,0.183,0.1827,0.1858,0.1871,0.1883,0.1899,0.1895,0.191,0.1908,0.1908,0.1912,0.194,0.1946,0.193,0.198,0.1964,0.1968,0.1975,0.198,0.1984,0.1982,0.1915,0,0,0,0,0,0.1823,0.1841,0.1853,0.1879,0.1885,0.1891,0.1902,0.1902,0.1914,0.1919,0.1927,0.194,0.1957,0.1969,0.1986,0.2018,0.2022,0.2033,0.2037,0.204,0.2044,0.2062,0.2068,0.2009,0.2009,0.2009,0,0,0.1836,0.1846,0.1858,0.1882,0.1891,0.1911,0.1896,0.1916,0.1931,0.1922,0.1949,0.1955,0.1969,0.2,0.2014,0.2006,0.2061,0.2044,0.2046,0.2048,0.2066,0.2071,0.2076,0.2011,0.201,0.201,0,0,0.187,0.188,0.1903,0.1913,0.1929,0.1933,0.1938,0.1952,0.1956,0.1983,0.1978,0.1995,0.2025,0.2036,0.2045,0.2086,0.208,0.2091,0.2111,0.213,0.2134,0.2139,0.2154,0.2159,0.2094,0.2094,0.2094,0,0.1884,0.1914,0.1915,0.1937,0.1948,0.1942,0.1966,0.1976,0.1996,0.2004,0.1995,0.2034,0.2043,0.2076,0.2086,0.2094,0.2101,0.2089,0.2134,0.2138,0.2142,0.2156,0.2162,0.2096,0.2095,0.2095,0.2095,0,0.1931,0.1951,0.1968,0.1989,0.2002,0.2024,0.2029,0.2042,0.2042,0.2047,0.2075,0.2086,0.2105,0.2113,0.2112,0.2147,0.2142,0.2134,0.2117,0.2149,0.2162,0.2168,0.2097,0.2097,0.2097,0.2096,0,0,0.1973,0.1995,0.2001,0.2011,0.2028,0.2044,0.2067,0.2087,0.2098,0.2112,0.2132,0.2159,0.2152,0.2162,0.2162,0.2179,0.2211,0.2168,0.2169,0.2176,0.2251,0.2257,0.2263,0.2208,0.2209,0.221,0.225,0,0.2009,0.2049,0.2052,0.2088,0.2108,0.2104,0.2124,0.2137,0.2142,0.216,0.2166,0.2185,0.2174,0.2181,0.2197,0.2204,0.2226,0.2201,0.2226,0.2227,0.2222,0.227,0.2276,0.2314,0.2255,0.2256,0.2256,0,0.2055,0.2072,0.2111,0.2127,0.2135,0.2153,0.2172,0.2189,0.2204,0.2207,0.222,0.2218,0.2242,0.2226,0.2259,0.2242,0.2253,0.2258,0.226,0.2262,0.2243,0.2274,0.2325,0.2331,0.2265,0.2264,0.2263,0,0.2083,0.2115,0.2143,0.2151,0.217,0.2183,0.2192,0.2206,0.2218,0.2235,0.2243,0.2262,0.2272,0.2287,0.2291,0.2279,0.2325,0.2308,0.2328,0.2328,0.2337,0.2337,0.2392,0.2344,0.2344,0.2344,0.2344,0,0.2122,0.2146,0.2155,0.2172,0.2199,0.2203,0.2229,0.2237,0.225,0.2269,0.2266,0.2284,0.2288,0.2306,0.231,0.2337,0.2342,0.2345,0.2346,0.2345,0.2345,0.2352,0.235,0.2346,0.2345,0.2345,0.2345,0,0.2157,0.2164,0.2194,0.221,0.2215,0.2234,0.2248,0.2265,0.2271,0.2294,0.23,0.231,0.2331,0.2337,0.2363,0.2365,0.2398,0.2396,0.2393,0.2393,0.2412,0.241,0.2474,0.2482,0.2429,0.243,0.243,0,0.2181,0.22,0.2219,0.2232,0.2241,0.2261,0.2274,0.2279,0.2292,0.2312,0.2326,0.2348,0.2365,0.24,0.2409,0.2429,0.2428,0.2449,0.2431,0.2431,0.2429,0.2428,0.243,0.2452,0.2453,0.2453,0.2454,0,0.2225,0.2228,0.2247,0.2267,0.2283,0.2299,0.2315,0.2325,0.2332,0.2348,0.237,0.2384,0.2411,0.2433,0.2454,0.2462,0.2459,0.2459,0.2465,0.2465,0.2462,0.2464,0.2402,0.2458,0.2457,0.2457,0.2457,0.2457,0.2255,0.2272,0.2289,0.231,0.2323,0.2338,0.2354,0.2363,0.2382,0.2405,0.2407,0.2432,0.2447,0.2475,0.2485,0.2505,0.2498,0.2507,0.2509,0.2511,0.2512,0.246,0.2508,0.2508,0.2508,0.2508,0.2508,0,0.2299,0.231,0.233,0.2352,0.2369,0.2366,0.2383,0.2398,0.242,0.2435,0.2453,0.248,0.2501,0.2513,0.2534,0.2548,0.2547,0.2554,0.2552,0.2555,0.2517,0.251,0.2554,0.2554,0.2554,0.2554,0.2554,0.2554,0.2324,0.2352,0.2358,0.2393,0.2403,0.2428,0.2438,0.2452,0.2465,0.2495,0.2513,0.2521,0.2535,0.2558,0.2578,0.2581,0.2589,0.2596,0.2598,0.2562,0.2557,0.2553,0.2546,0.2597,0.2598,0.2634,0.2635,0.2635]}]]